[[{"header":{"parameterUnit":"m.s-1","parameterCategory":2,"la1":30.2991,"la2":30.254,"lo1":-89.0895,"lo2":-89.0444,"dy":0.0017,"dx":0.0017,"nx":28,"ny":28,"refTime":"2025-03-02T09:00:00:Z","depth":"0","parameterNumber":2,"parameterNumberName":"U-component_of_CURRENTS"},"data":[0,0,0,0,0,0,0,0,0,0,0,0,0,0,0,0,0,0,0,0,0,0,0,0,0,0,0,0,0,0,0,0,0,0,0,0,0,0,0,0,0,0,0,0,0,0,0,0,0,0,0,0,0,0,0,0,0,0,-0.2383,-0.2384,0,-0.237,-0.237,-0.2369,-0.2343,-0.2343,-0.2343,-0.2342,-0.2303,-0.2302,-0.2301,0,0,0,0,0,0,0,0,0,0,0,0,0,-0.2357,-0.2357,-0.2383,-0.2384,-0.2384,-0.237,-0.237,-0.2369,-0.2343,-0.2343,-0.2343,-0.2342,-0.2303,-0.2302,-0.2301,0,0,0,0,0,0,0,0,0,0,0,0,0,-0.2356,-0.2357,-0.2383,-0.2371,-0.237,-0.237,-0.237,-0.2369,-0.2343,-0.2343,-0.2342,-0.2342,-0.2303,-0.2302,-0.2301,-0.2301,0,0,-0.2297,-0.2297,0,0,0,0,0,0,0,0,-0.2356,-0.2356,-0.2373,-0.2372,-0.2371,-0.236,-0.2346,-0.2346,-0.2343,-0.2351,-0.2342,-0.2342,-0.2322,-0.2319,-0.2314,-0.2299,-0.2298,-0.2297,-0.2296,-0.2296,-0.2295,0,0,0,0,0,0,0,-0.2356,-0.2357,-0.2375,-0.2373,-0.2372,-0.2356,-0.2355,-0.2345,-0.2336,-0.235,-0.2349,-0.2352,-0.232,-0.2315,-0.2312,-0.2297,-0.2297,-0.2296,-0.2295,-0.2295,-0.2284,-0.2284,0,0,0,0,0,0,-0.2365,-0.2357,-0.2376,-0.2375,-0.2365,-0.2357,-0.2356,-0.2362,-0.2336,-0.2333,-0.2352,-0.235,-0.2317,-0.2314,-0.2311,-0.232,-0.2296,-0.2295,-0.2294,-0.2283,-0.2284,-0.2284,0,0,0,0,0,0,-0.2365,-0.2367,-0.2376,-0.2368,-0.2368,-0.2359,-0.2364,-0.2362,-0.2357,-0.2339,-0.2334,-0.2351,-0.2317,-0.2313,-0.2306,-0.2318,-0.2294,-0.2293,-0.2283,-0.2283,-0.2284,-0.2331,0,0,0,0,0,0,-0.2364,-0.2367,-0.237,-0.2369,-0.2369,-0.2384,-0.2365,-0.2362,-0.2361,-0.2359,-0.2336,-0.2332,-0.2316,-0.2308,-0.2305,-0.2316,-0.2292,-0.2282,-0.2283,-0.2284,-0.2329,-0.2333,-0.2337,0,0,0,0,0,-0.2363,-0.2371,-0.237,-0.2372,-0.2374,-0.2385,-0.2383,-0.2373,-0.2361,-0.2365,-0.2348,-0.2333,-0.2311,-0.2308,-0.2304,-0.2314,-0.2282,-0.2283,-0.2284,-0.2327,-0.2333,-0.2337,0,0,0,0,0,0,-0.2357,-0.237,-0.2368,-0.2378,-0.2385,-0.2381,-0.2381,-0.2376,-0.2366,-0.2359,-0.2338,-0.2334,-0.2332,-0.2317,-0.2314,-0.2313,-0.2294,-0.2294,-0.2328,-0.2333,-0.2337,-0.2345,-0.2291,0,0,0,0,0,-0.236,-0.2367,-0.2379,-0.2384,-0.239,-0.2386,-0.2386,-0.2383,-0.2377,-0.2371,-0.2357,-0.2341,-0.2333,-0.2328,-0.2316,-0.2317,-0.2309,-0.2321,-0.2325,-0.2329,-0.2332,-0.2333,-0.2338,-0.2288,-0.2288,-0.2288,0,0,-0.2357,-0.2365,-0.2368,-0.2383,-0.2383,-0.2399,-0.2384,-0.239,-0.24,-0.2369,-0.237,-0.2354,-0.2336,-0.2337,-0.2335,-0.2326,-0.234,-0.233,-0.2333,-0.2335,-0.2335,-0.234,-0.2344,-0.2288,-0.2288,-0.2288,0,0,-0.2358,-0.2366,-0.2374,-0.2387,-0.2398,-0.2403,-0.2409,-0.2412,-0.241,-0.2413,-0.2393,-0.2386,-0.2371,-0.2364,-0.2357,-0.2376,-0.236,-0.2372,-0.24,-0.2401,-0.2406,-0.2409,-0.2411,-0.2415,-0.2375,-0.2375,-0.2375,0,-0.2354,-0.237,-0.2377,-0.2394,-0.2409,-0.2409,-0.2429,-0.2431,-0.2431,-0.2439,-0.2419,-0.2408,-0.2385,-0.2397,-0.2397,-0.2386,-0.2384,-0.2385,-0.2408,-0.2411,-0.2414,-0.2415,-0.2418,-0.2378,-0.2377,-0.2377,-0.2377,0,-0.2363,-0.2382,-0.2389,-0.2414,-0.2432,-0.2448,-0.2466,-0.2478,-0.2475,-0.2478,-0.2486,-0.2457,-0.2453,-0.2444,-0.2422,-0.2436,-0.2428,-0.2412,-0.2398,-0.2422,-0.2421,-0.2424,-0.2381,-0.238,-0.238,-0.2379,0,0,-0.2332,-0.2387,-0.2387,-0.2413,-0.2448,-0.2465,-0.2495,-0.2525,-0.2549,-0.2538,-0.2565,-0.2537,-0.2522,-0.2513,-0.2489,-0.2484,-0.2494,-0.2457,-0.2456,-0.2463,-0.2501,-0.2463,-0.2461,-0.2485,-0.2485,-0.2486,-0.2494,0,-0.2335,-0.2377,-0.2404,-0.2448,-0.2476,-0.2507,-0.2541,-0.2569,-0.2583,-0.2608,-0.259,-0.2595,-0.255,-0.2546,-0.2536,-0.2505,-0.2502,-0.2493,-0.2472,-0.2472,-0.2438,-0.2463,-0.2383,-0.2381,-0.2497,-0.2497,-0.2497,0,-0.2325,-0.2363,-0.2407,-0.2485,-0.25,-0.2526,-0.2591,-0.262,-0.2661,-0.2674,-0.2681,-0.2668,-0.2659,-0.2613,-0.2583,-0.2581,-0.2544,-0.2517,-0.2517,-0.2466,-0.2438,-0.2373,-0.2381,-0.2367,-0.2501,-0.2501,-0.25,0,-0.2294,-0.2363,-0.2402,-0.2425,-0.2508,-0.2537,-0.2577,-0.2632,-0.2666,-0.2709,-0.2733,-0.273,-0.2718,-0.2684,-0.262,-0.2604,-0.259,-0.2562,-0.2498,-0.2495,-0.2414,-0.2403,-0.2407,-0.2545,-0.2545,-0.2545,-0.2545,0,-0.2283,-0.2313,-0.2391,-0.2412,-0.2465,-0.2528,-0.2584,-0.2627,-0.2694,-0.2729,-0.2752,-0.2771,-0.2732,-0.2716,-0.2657,-0.2589,-0.2619,-0.2509,-0.2497,-0.2428,-0.2419,-0.2391,-0.2387,-0.2546,-0.2546,-0.2545,-0.2545,0,-0.2231,-0.2285,-0.2333,-0.2421,-0.2448,-0.2479,-0.2576,-0.2612,-0.2689,-0.2736,-0.275,-0.2798,-0.2772,-0.2738,-0.2685,-0.2627,-0.2529,-0.2542,-0.2466,-0.2443,-0.2353,-0.2353,-0.231,-0.2253,-0.2471,-0.247,-0.2469,0,-0.2206,-0.2224,-0.2311,-0.233,-0.2364,-0.2429,-0.2468,-0.2579,-0.2621,-0.2739,-0.2749,-0.2775,-0.2754,-0.2696,-0.262,-0.254,-0.2492,-0.2415,-0.2361,-0.2345,-0.2337,-0.232,-0.2274,-0.2276,-0.2274,-0.2272,-0.2271,0,-0.2144,-0.2169,-0.2202,-0.2247,-0.2287,-0.2345,-0.2414,-0.2455,-0.2578,-0.2626,-0.2677,-0.2683,-0.2673,-0.2569,-0.2499,-0.2427,-0.2357,-0.2373,-0.2374,-0.2201,-0.2165,-0.2105,-0.2284,-0.2254,-0.2256,-0.2257,-0.2258,-0.2259,-0.2069,-0.207,-0.2103,-0.2133,-0.218,-0.2217,-0.2219,-0.231,-0.236,-0.2407,-0.2517,-0.2504,-0.2494,-0.2384,-0.2338,-0.2236,-0.2239,-0.2144,-0.2153,-0.2143,-0.2065,-0.2213,-0.2157,-0.2158,-0.2159,-0.216,-0.2161,0,-0.1958,-0.1965,-0.1987,-0.2012,-0.2003,-0.2079,-0.2138,-0.2117,-0.2116,-0.222,-0.224,-0.227,-0.2192,-0.2196,-0.2132,-0.2046,-0.1985,-0.1984,-0.1945,-0.191,-0.2053,-0.2022,-0.1913,-0.1913,-0.1913,-0.1913,-0.1913,-0.1913,-0.1897,-0.1863,-0.1874,-0.1813,-0.1827,-0.1774,-0.1772,-0.1767,-0.1812,-0.183,-0.1897,-0.2001,-0.2021,-0.2133,-0.2037,-0.1947,-0.1883,-0.1818,-0.1832,-0.1949,-0.1965,-0.198,-0.1951,-0.1829,-0.1829,-0.1632,-0.1631,-0.1629]},{"header":{"parameterUnit":"m.s-1","parameterCategory":2,"la1":30.2991,"la2":30.254,"lo1":-89.0895,"lo2":-89.0444,"dy":0.0017,"dx":0.0017,"nx":28,"ny":28,"refTime":"2025-03-02T09:00:00:Z","depth":"0","parameterNumber":3,"parameterNumberName":"V-component_of_CURRENTS"},"data":[0,0,0,0,0,0,0,0,0,0,0,0,0,0,0,0,0,0,0,0,0,0,0,0,0,0,0,0,0,0,0,0,0,0,0,0,0,0,0,0,0,0,0,0,0,0,0,0,0,0,0,0,0,0,0,0,0,0,-0.0275,-0.0274,0,-0.0219,-0.0218,-0.0218,-0.0189,-0.0189,-0.0189,-0.0189,-0.0125,-0.0124,-0.0122,0,0,0,0,0,0,0,0,0,0,0,0,0,-0.0333,-0.0332,-0.0275,-0.0274,-0.0274,-0.0219,-0.0218,-0.0218,-0.0189,-0.0189,-0.0189,-0.0189,-0.0126,-0.0124,-0.0122,0,0,0,0,0,0,0,0,0,0,0,0,0,-0.0296,-0.0332,-0.0275,-0.0252,-0.025,-0.0219,-0.0218,-0.0217,-0.0189,-0.0189,-0.0189,-0.0189,-0.0126,-0.0124,-0.0122,-0.011,0,0,-0.0114,-0.0113,0,0,0,0,0,0,0,0,-0.0298,-0.0294,-0.0256,-0.0254,-0.0251,-0.021,-0.0215,-0.0181,-0.0189,-0.0213,-0.0189,-0.0189,-0.0153,-0.0148,-0.0139,-0.0107,-0.0104,-0.0114,-0.0113,-0.0112,-0.0111,0,0,0,0,0,0,0,-0.0301,-0.0296,-0.0254,-0.0256,-0.0252,-0.0236,-0.0231,-0.0209,-0.0185,-0.0211,-0.0208,-0.0201,-0.0151,-0.0141,-0.0137,-0.0103,-0.0114,-0.0112,-0.011,-0.011,-0.0046,-0.0046,0,0,0,0,0,0,-0.0308,-0.0299,-0.0255,-0.0252,-0.0274,-0.0235,-0.023,-0.0224,-0.0185,-0.0179,-0.0201,-0.02,-0.0145,-0.014,-0.0135,-0.0115,-0.0112,-0.0109,-0.0108,-0.0046,-0.0046,-0.0045,0,0,0,0,0,0,-0.0309,-0.0304,-0.0258,-0.0273,-0.0266,-0.0235,-0.0228,-0.0223,-0.0213,-0.0178,-0.0171,-0.0197,-0.0145,-0.0138,-0.0113,-0.0113,-0.0108,-0.0106,-0.0046,-0.0046,-0.0046,-0.0078,0,0,0,0,0,0,-0.0311,-0.0305,-0.0306,-0.0274,-0.0266,-0.0243,-0.0228,-0.0222,-0.0208,-0.0206,-0.0172,-0.0166,-0.0145,-0.0117,-0.0111,-0.0109,-0.0104,-0.0047,-0.0046,-0.0046,-0.0078,-0.0079,-0.008,0,0,0,0,0,-0.0313,-0.0316,-0.0307,-0.0301,-0.0267,-0.0243,-0.0238,-0.0215,-0.0208,-0.0206,-0.018,-0.0167,-0.011,-0.0115,-0.0108,-0.0106,-0.0047,-0.0046,-0.0046,-0.0077,-0.0079,-0.008,0,0,0,0,0,0,-0.0342,-0.0312,-0.0302,-0.0295,-0.0272,-0.0238,-0.0235,-0.0218,-0.0196,-0.0195,-0.0163,-0.0155,-0.0133,-0.0114,-0.012,-0.0085,-0.0076,-0.0074,-0.0102,-0.0104,-0.0105,-0.0116,-0.0102,0,0,0,0,0,-0.0348,-0.0344,-0.0311,-0.0307,-0.0297,-0.0267,-0.0256,-0.0239,-0.0214,-0.0204,-0.0178,-0.0151,-0.0125,-0.0111,-0.0087,-0.0068,-0.0041,-0.0061,-0.0062,-0.0064,-0.0067,-0.0025,-0.0023,-0.0044,-0.0044,-0.0044,0,0,-0.0359,-0.0342,-0.034,-0.0313,-0.0295,-0.0288,-0.026,-0.0246,-0.0239,-0.0201,-0.0185,-0.0156,-0.0121,-0.01,-0.0088,-0.0083,-0.0042,-0.0063,-0.0065,-0.0068,-0.0024,-0.0022,-0.002,-0.0043,-0.0043,-0.0043,0,0,-0.0383,-0.0363,-0.037,-0.0353,-0.0328,-0.0306,-0.0303,-0.027,-0.0253,-0.0232,-0.0202,-0.0171,-0.0136,-0.0107,-0.0089,-0.0083,-0.0053,-0.0077,-0.0092,-0.0051,-0.0049,-0.0047,-0.0006,-0.0,-0.0077,-0.0077,-0.0077,0,-0.04,-0.0403,-0.0368,-0.037,-0.0362,-0.0317,-0.0325,-0.0298,-0.026,-0.0245,-0.0233,-0.0169,-0.0139,-0.0106,-0.0103,-0.0087,-0.006,-0.009,-0.0053,-0.0051,-0.0048,-0.0007,0.0,-0.0078,-0.0078,-0.0078,-0.0078,0,-0.0429,-0.0431,-0.0433,-0.0421,-0.0405,-0.0404,-0.0363,-0.0344,-0.0317,-0.0286,-0.0246,-0.0197,-0.0159,-0.0141,-0.0121,-0.0087,-0.0072,-0.0062,-0.0052,-0.0048,-0.0005,0.0003,-0.008,-0.008,-0.0079,-0.0079,0,0,-0.0467,-0.0459,-0.046,-0.047,-0.0435,-0.0429,-0.0408,-0.0378,-0.0365,-0.0314,-0.0291,-0.0235,-0.0201,-0.0178,-0.0139,-0.0099,-0.0053,-0.0077,-0.0074,-0.0042,0.0039,0.0094,0.0108,-0.0037,-0.0036,-0.0035,0.0063,0,-0.0505,-0.0534,-0.0508,-0.053,-0.0544,-0.0494,-0.048,-0.0441,-0.0395,-0.0358,-0.0288,-0.0254,-0.0216,-0.0197,-0.0149,-0.0076,-0.0035,-0.0081,0.0035,0.0039,0.0083,0.0118,0.016,0.0255,0.0071,0.0072,0.0073,0,-0.0544,-0.0561,-0.0596,-0.0597,-0.0596,-0.0593,-0.0562,-0.0541,-0.0465,-0.0428,-0.0366,-0.0309,-0.0235,-0.0209,-0.0079,-0.0111,-0.0044,0.0015,0.002,0.0087,0.0108,0.0222,0.0276,0.0409,0.0085,0.0084,0.0084,0,-0.0606,-0.0621,-0.0656,-0.0656,-0.0644,-0.0644,-0.0629,-0.0567,-0.0549,-0.047,-0.044,-0.0343,-0.0291,-0.0192,-0.0058,-0.0073,0.009,0.0084,0.0198,0.0202,0.027,0.0279,0.0462,0.0168,0.0168,0.0167,0.0167,0,-0.0662,-0.0688,-0.069,-0.0712,-0.0747,-0.0707,-0.0716,-0.0678,-0.0618,-0.0591,-0.0484,-0.043,-0.0285,-0.0168,-0.0062,0.0109,0.0092,0.0207,0.0237,0.026,0.0267,0.041,0.0447,0.0171,0.017,0.0169,0.0169,0,-0.0725,-0.0725,-0.077,-0.0777,-0.0781,-0.0804,-0.0788,-0.0786,-0.0712,-0.067,-0.0648,-0.0493,-0.0324,-0.0163,0.0015,0.0111,0.0345,0.0317,0.0339,0.037,0.0586,0.0618,0.0809,0.0863,0.0452,0.0454,0.0456,0,-0.0761,-0.0792,-0.0831,-0.0863,-0.087,-0.0893,-0.0905,-0.0848,-0.0834,-0.07,-0.0682,-0.0503,-0.0355,-0.005,0.0158,0.0376,0.0449,0.0519,0.0499,0.0624,0.0682,0.0695,0.0726,0.0576,0.0578,0.058,0.0582,0,-0.083,-0.084,-0.0878,-0.0951,-0.0982,-0.1011,-0.1014,-0.1017,-0.0931,-0.0855,-0.0714,-0.0577,-0.025,0.0046,0.0337,0.046,0.0618,0.0568,0.0698,0.0802,0.0828,0.0886,0.0481,0.0601,0.0599,0.0597,0.0596,0.0596,-0.0871,-0.0918,-0.0968,-0.1032,-0.1076,-0.1109,-0.1123,-0.1092,-0.1043,-0.09,-0.0755,-0.0502,-0.0069,0.0372,0.0517,0.0847,0.0785,0.0931,0.0962,0.0966,0.1021,0.0659,0.081,0.081,0.0809,0.0809,0.0808,0,-0.0919,-0.097,-0.1044,-0.1112,-0.1169,-0.1167,-0.1178,-0.115,-0.108,-0.0903,-0.0722,-0.021,0.0215,0.0593,0.1069,0.1234,0.1238,0.1312,0.1345,0.1357,0.1054,0.1063,0.1275,0.1275,0.1275,0.1275,0.1274,0.1274,-0.0945,-0.1026,-0.1066,-0.117,-0.1215,-0.125,-0.125,-0.1176,-0.105,-0.0742,-0.0437,-0.0186,0.0383,0.1157,0.1581,0.1605,0.1709,0.1709,0.1751,0.1553,0.1519,0.1487,0.1509,0.181,0.1811,0.2043,0.2045,0.2047]}],[{"header":{"parameterUnit":"m.s-1","parameterCategory":2,"la1":30.2991,"la2":30.254,"lo1":-89.0895,"lo2":-89.0444,"dy":0.0017,"dx":0.0017,"nx":28,"ny":28,"refTime":"2025-03-02T09:00:00:Z","depth":"2","parameterNumber":2,"parameterNumberName":"U-component_of_CURRENTS"},"data":[0,0,0,0,0,0,0,0,0,0,0,0,0,0,0,0,0,0,0,0,0,0,0,0,0,0,0,0,0,0,0,0,0,0,0,0,0,0,0,0,0,0,0,0,0,0,0,0,0,0,0,0,0,0,0,0,0,0,-0.2127,-0.2127,0,-0.2119,-0.2119,-0.2119,-0.2103,-0.2103,-0.2103,-0.2103,-0.2074,-0.2074,-0.2073,0,0,0,0,0,0,0,0,0,0,0,0,0,-0.21,-0.2101,-0.2127,-0.2127,-0.2127,-0.2119,-0.2119,-0.2119,-0.2103,-0.2103,-0.2103,-0.2103,-0.2074,-0.2074,-0.2073,0,0,0,0,0,0,0,0,0,0,0,0,0,-0.2102,-0.2101,-0.2127,-0.2121,-0.212,-0.2119,-0.2119,-0.2118,-0.2103,-0.2103,-0.2103,-0.2103,-0.2075,-0.2074,-0.2073,-0.2068,0,0,-0.2069,-0.2069,0,0,0,0,0,0,0,0,-0.2102,-0.2102,-0.2121,-0.2121,-0.2121,-0.2114,-0.2099,-0.2102,-0.2103,-0.2107,-0.2103,-0.2103,-0.2088,-0.2085,-0.2081,-0.2067,-0.2066,-0.2069,-0.2069,-0.2068,-0.2068,0,0,0,0,0,0,0,-0.2101,-0.2102,-0.2121,-0.2122,-0.2121,-0.2109,-0.2109,-0.2099,-0.2095,-0.2106,-0.2106,-0.2109,-0.2087,-0.2082,-0.208,-0.2065,-0.2069,-0.2068,-0.2068,-0.2067,-0.2061,-0.2062,0,0,0,0,0,0,-0.211,-0.2103,-0.2122,-0.2121,-0.2114,-0.2109,-0.2109,-0.2114,-0.2096,-0.2094,-0.2109,-0.2109,-0.2084,-0.2081,-0.2079,-0.2094,-0.2068,-0.2067,-0.2067,-0.2061,-0.2062,-0.2062,0,0,0,0,0,0,-0.2109,-0.2111,-0.2122,-0.2114,-0.2114,-0.211,-0.2116,-0.2114,-0.2115,-0.2099,-0.2096,-0.2113,-0.2083,-0.208,-0.2079,-0.2092,-0.2067,-0.2066,-0.206,-0.2061,-0.2062,-0.2111,0,0,0,0,0,0,-0.2108,-0.2111,-0.2115,-0.2114,-0.2115,-0.2131,-0.2116,-0.2114,-0.2119,-0.2118,-0.2101,-0.2098,-0.2083,-0.208,-0.2078,-0.209,-0.2065,-0.206,-0.2061,-0.2062,-0.2108,-0.2113,-0.2117,0,0,0,0,0,-0.2107,-0.2116,-0.2116,-0.2118,-0.2122,-0.2132,-0.2131,-0.2126,-0.2119,-0.2125,-0.2113,-0.2099,-0.2084,-0.208,-0.2077,-0.2089,-0.2059,-0.2061,-0.2062,-0.2107,-0.2112,-0.2117,0,0,0,0,0,0,-0.2105,-0.2116,-0.2115,-0.2126,-0.2133,-0.2131,-0.2134,-0.2132,-0.2126,-0.2123,-0.2105,-0.2101,-0.2104,-0.209,-0.2086,-0.2089,-0.2069,-0.207,-0.2105,-0.211,-0.2114,-0.212,-0.2064,0,0,0,0,0,-0.2108,-0.2116,-0.2126,-0.2133,-0.214,-0.2138,-0.214,-0.214,-0.2137,-0.2134,-0.2124,-0.2112,-0.2105,-0.2102,-0.2092,-0.2095,-0.2086,-0.21,-0.2105,-0.2108,-0.2111,-0.2111,-0.2116,-0.2066,-0.2066,-0.2066,0,0,-0.2107,-0.2115,-0.2118,-0.2133,-0.2135,-0.215,-0.2138,-0.2148,-0.2159,-0.2132,-0.2139,-0.2125,-0.2108,-0.2112,-0.2112,-0.2103,-0.2119,-0.211,-0.2113,-0.2114,-0.2113,-0.2118,-0.2123,-0.2066,-0.2066,-0.2066,0,0,-0.2112,-0.212,-0.213,-0.2142,-0.2156,-0.2159,-0.2167,-0.2172,-0.2174,-0.218,-0.2163,-0.2159,-0.2149,-0.2141,-0.2135,-0.2155,-0.214,-0.2153,-0.2182,-0.2183,-0.2187,-0.2191,-0.2192,-0.2196,-0.2157,-0.2157,-0.2157,0,-0.2112,-0.2127,-0.2134,-0.2151,-0.2166,-0.2168,-0.2188,-0.2191,-0.2195,-0.2203,-0.2189,-0.2182,-0.2163,-0.2173,-0.2175,-0.2166,-0.2164,-0.2166,-0.2189,-0.2192,-0.2195,-0.2196,-0.2199,-0.216,-0.2159,-0.2159,-0.2159,0,-0.2124,-0.2143,-0.2152,-0.2176,-0.2192,-0.221,-0.2225,-0.224,-0.2241,-0.2244,-0.2255,-0.2231,-0.2228,-0.2221,-0.2201,-0.2217,-0.2209,-0.2194,-0.2178,-0.2203,-0.2202,-0.2205,-0.2163,-0.2162,-0.2162,-0.2161,0,0,-0.2103,-0.2152,-0.2153,-0.2177,-0.221,-0.2226,-0.2255,-0.2283,-0.2306,-0.2302,-0.2327,-0.2305,-0.2294,-0.2286,-0.2265,-0.2261,-0.2274,-0.2238,-0.2237,-0.2244,-0.2282,-0.2243,-0.2241,-0.2266,-0.2267,-0.2267,-0.2275,0,-0.2109,-0.215,-0.2173,-0.2215,-0.2241,-0.2268,-0.2299,-0.2326,-0.234,-0.2365,-0.235,-0.2358,-0.2319,-0.2319,-0.2311,-0.2283,-0.2281,-0.2273,-0.2252,-0.2252,-0.2217,-0.2243,-0.2065,-0.2054,-0.2278,-0.2278,-0.2278,0,-0.2106,-0.214,-0.2183,-0.225,-0.2264,-0.229,-0.2348,-0.2375,-0.2413,-0.2426,-0.2436,-0.2425,-0.242,-0.2381,-0.2355,-0.2354,-0.2322,-0.2297,-0.2297,-0.2244,-0.2217,-0.2063,-0.205,-0.2282,-0.2282,-0.2281,-0.2281,0,-0.2082,-0.2144,-0.2182,-0.2202,-0.2275,-0.2303,-0.234,-0.2389,-0.242,-0.2462,-0.2485,-0.2484,-0.2478,-0.2447,-0.2392,-0.2378,-0.2365,-0.2338,-0.2276,-0.2274,-0.2108,-0.209,-0.2323,-0.2323,-0.2323,-0.2323,-0.2323,0,-0.2076,-0.2105,-0.2175,-0.2196,-0.2244,-0.23,-0.2351,-0.2391,-0.2451,-0.2481,-0.2506,-0.2522,-0.2492,-0.2478,-0.2425,-0.2362,-0.2392,-0.2287,-0.2274,-0.2121,-0.2104,-0.2287,-0.2282,-0.2323,-0.2323,-0.2323,-0.2323,0,-0.2034,-0.2084,-0.2128,-0.2207,-0.2231,-0.2261,-0.2347,-0.2378,-0.2451,-0.2493,-0.2507,-0.255,-0.2527,-0.25,-0.2452,-0.2397,-0.2347,-0.2317,-0.2143,-0.211,-0.2247,-0.2245,-0.2249,-0.2247,-0.2246,-0.2245,-0.2245,0,-0.2015,-0.2032,-0.2112,-0.2128,-0.216,-0.222,-0.2253,-0.2353,-0.2387,-0.2494,-0.2499,-0.2526,-0.2502,-0.2449,-0.2368,-0.2293,-0.2322,-0.2087,-0.2021,-0.2253,-0.224,-0.224,-0.224,-0.1821,-0.1817,-0.1813,-0.1811,0,-0.1961,-0.1986,-0.2015,-0.2056,-0.2091,-0.214,-0.22,-0.2233,-0.2341,-0.2382,-0.2421,-0.2422,-0.2404,-0.2249,-0.2183,-0.2105,-0.2087,-0.2016,-0.2296,-0.1877,-0.1853,-0.184,-0.1852,-0.178,-0.1783,-0.1786,-0.1787,-0.1788,-0.1896,-0.1897,-0.1927,-0.1952,-0.1993,-0.2018,-0.2013,-0.2086,-0.2122,-0.2142,-0.2248,-0.2185,-0.2173,-0.1973,-0.1883,-0.1806,-0.1934,-0.1811,-0.182,-0.1833,-0.1791,-0.1767,-0.1671,-0.1674,-0.1676,-0.1677,-0.1679,0,-0.1794,-0.18,-0.1818,-0.1836,-0.1821,-0.1893,-0.1933,-0.1892,-0.1872,-0.1929,-0.1932,-0.1732,-0.1659,-0.165,-0.1504,-0.1484,-0.1447,-0.1397,-0.1339,-0.137,-0.1398,-0.1333,-0.1092,-0.109,-0.1089,-0.1087,0,0,-0.1737,-0.1703,-0.171,-0.1643,-0.1654,-0.159,-0.1579,-0.1539,-0.1539,-0.1459,-0.1429,-0.1559,-0.1604,-0.1344,-0.1291,-0.1172,-0.1251,-0.1109,-0.1579,-0.1541,-0.1566,-0.1637,-0.1573,0,0,0,0,0]},{"header":{"parameterUnit":"m.s-1","parameterCategory":2,"la1":30.2991,"la2":30.254,"lo1":-89.0895,"lo2":-89.0444,"dy":0.0017,"dx":0.0017,"nx":28,"ny":28,"refTime":"2025-03-02T09:00:00:Z","depth":"2","parameterNumber":3,"parameterNumberName":"V-component_of_CURRENTS"},"data":[0,0,0,0,0,0,0,0,0,0,0,0,0,0,0,0,0,0,0,0,0,0,0,0,0,0,0,0,0,0,0,0,0,0,0,0,0,0,0,0,0,0,0,0,0,0,0,0,0,0,0,0,0,0,0,0,0,0,-0.029,-0.0289,0,-0.0236,-0.0235,-0.0235,-0.0206,-0.0206,-0.0206,-0.0206,-0.0146,-0.0144,-0.0143,0,0,0,0,0,0,0,0,0,0,0,0,0,-0.0344,-0.0343,-0.029,-0.0289,-0.0289,-0.0236,-0.0235,-0.0235,-0.0206,-0.0206,-0.0206,-0.0206,-0.0146,-0.0144,-0.0143,0,0,0,0,0,0,0,0,0,0,0,0,0,-0.0309,-0.0343,-0.029,-0.0267,-0.0265,-0.0236,-0.0235,-0.0235,-0.0206,-0.0206,-0.0206,-0.0206,-0.0147,-0.0145,-0.0142,-0.0133,0,0,-0.0136,-0.0135,0,0,0,0,0,0,0,0,-0.0311,-0.0307,-0.0272,-0.0269,-0.0266,-0.0227,-0.0232,-0.02,-0.0207,-0.023,-0.0206,-0.0206,-0.0172,-0.0168,-0.0159,-0.013,-0.0127,-0.0135,-0.0134,-0.0133,-0.0132,0,0,0,0,0,0,0,-0.0314,-0.0309,-0.027,-0.0271,-0.0267,-0.0251,-0.0247,-0.0226,-0.0203,-0.0227,-0.0225,-0.0218,-0.017,-0.0161,-0.0158,-0.0126,-0.0135,-0.0133,-0.0132,-0.0131,-0.0074,-0.0074,0,0,0,0,0,0,-0.032,-0.0312,-0.0271,-0.0268,-0.0288,-0.0251,-0.0245,-0.024,-0.0203,-0.0197,-0.0218,-0.0217,-0.0165,-0.016,-0.0155,-0.0136,-0.0133,-0.0131,-0.013,-0.0074,-0.0074,-0.0074,0,0,0,0,0,0,-0.0321,-0.0317,-0.0273,-0.0288,-0.0281,-0.025,-0.0245,-0.0239,-0.023,-0.0196,-0.019,-0.0214,-0.0165,-0.0158,-0.0136,-0.0134,-0.013,-0.0128,-0.0075,-0.0074,-0.0074,-0.0102,0,0,0,0,0,0,-0.0323,-0.0318,-0.0319,-0.0288,-0.028,-0.026,-0.0245,-0.0238,-0.0225,-0.0223,-0.019,-0.0184,-0.0164,-0.0139,-0.0133,-0.0131,-0.0126,-0.0075,-0.0074,-0.0074,-0.0101,-0.0103,-0.0104,0,0,0,0,0,-0.0325,-0.0328,-0.032,-0.0315,-0.0282,-0.026,-0.0255,-0.0232,-0.0225,-0.0223,-0.0199,-0.0185,-0.0133,-0.0137,-0.013,-0.0127,-0.0075,-0.0075,-0.0074,-0.0101,-0.0102,-0.0104,0,0,0,0,0,0,-0.0353,-0.0324,-0.0315,-0.0309,-0.0287,-0.0255,-0.0251,-0.0235,-0.0214,-0.0213,-0.0183,-0.0175,-0.0155,-0.0137,-0.0142,-0.011,-0.0102,-0.01,-0.0124,-0.0126,-0.0127,-0.0135,-0.0124,0,0,0,0,0,-0.036,-0.0355,-0.0324,-0.0321,-0.0311,-0.0282,-0.0271,-0.0256,-0.0231,-0.0222,-0.0197,-0.0172,-0.0148,-0.0134,-0.0113,-0.0094,-0.0068,-0.0088,-0.0089,-0.009,-0.0092,-0.0049,-0.0047,-0.0073,-0.0073,-0.0073,0,0,-0.0371,-0.0354,-0.0352,-0.0327,-0.0309,-0.0301,-0.0276,-0.0262,-0.0253,-0.0219,-0.0203,-0.0177,-0.0145,-0.0124,-0.0114,-0.0109,-0.0068,-0.009,-0.0091,-0.0092,-0.0049,-0.0046,-0.0044,-0.0072,-0.0072,-0.0072,0,0,-0.0392,-0.0375,-0.038,-0.0363,-0.0338,-0.0318,-0.0315,-0.0283,-0.0267,-0.0247,-0.0219,-0.019,-0.0159,-0.013,-0.0113,-0.0108,-0.0078,-0.0104,-0.0114,-0.0073,-0.007,-0.0068,-0.0028,-0.0022,-0.0102,-0.0102,-0.0102,0,-0.0408,-0.0409,-0.0378,-0.0377,-0.0369,-0.0328,-0.0332,-0.0307,-0.0272,-0.0257,-0.0247,-0.0187,-0.016,-0.0126,-0.0124,-0.0111,-0.0085,-0.0112,-0.0075,-0.0072,-0.0069,-0.0029,-0.0022,-0.0103,-0.0103,-0.0103,-0.0103,0,-0.0431,-0.0432,-0.0434,-0.042,-0.0405,-0.0402,-0.0363,-0.0345,-0.0321,-0.0291,-0.0254,-0.0209,-0.0174,-0.0158,-0.014,-0.0105,-0.0092,-0.0084,-0.0072,-0.0068,-0.0026,-0.0018,-0.0105,-0.0105,-0.0104,-0.0104,0,0,-0.0468,-0.0455,-0.0456,-0.0464,-0.0429,-0.0423,-0.0402,-0.0371,-0.0358,-0.0312,-0.0289,-0.0237,-0.0207,-0.0185,-0.0151,-0.0111,-0.0064,-0.0092,-0.0089,-0.0057,0.0027,0.0072,0.0085,-0.005,-0.0049,-0.0048,0.0048,0,-0.0499,-0.0521,-0.0496,-0.0512,-0.0522,-0.0476,-0.0462,-0.0425,-0.0383,-0.0347,-0.0284,-0.0252,-0.0218,-0.0202,-0.0155,-0.0087,-0.0045,-0.0091,0.002,0.0024,0.0061,0.0095,0.0069,0.0156,0.0056,0.0058,0.0059,0,-0.0532,-0.0545,-0.0572,-0.057,-0.0568,-0.0565,-0.0535,-0.0514,-0.0443,-0.0409,-0.0351,-0.0299,-0.0228,-0.0207,-0.0081,-0.0113,-0.0049,0.0006,0.0011,0.0067,0.0084,0.0136,0.0175,0.0072,0.0071,0.007,0.0069,0,-0.0589,-0.0597,-0.0626,-0.0625,-0.0611,-0.061,-0.0596,-0.0537,-0.0521,-0.0446,-0.0419,-0.0326,-0.0279,-0.0183,-0.0059,-0.0074,0.0083,0.0077,0.018,0.0183,0.0191,0.0194,0.016,0.016,0.016,0.016,0.0159,0,-0.0638,-0.066,-0.0659,-0.0678,-0.0708,-0.0669,-0.0677,-0.0642,-0.0585,-0.0562,-0.046,-0.041,-0.0271,-0.0161,-0.006,0.0099,0.0087,0.019,0.0217,0.0182,0.0183,0.013,0.0125,0.0163,0.0163,0.0162,0.0161,0,-0.0698,-0.0695,-0.0733,-0.0737,-0.074,-0.0763,-0.0748,-0.0746,-0.0676,-0.0639,-0.0618,-0.0471,-0.0313,-0.016,0.001,0.0101,0.0241,0.0295,0.0248,0.0269,0.031,0.0303,0.0415,0.0417,0.042,0.0421,0.0423,0,-0.0731,-0.0757,-0.0791,-0.0822,-0.0828,-0.0849,-0.0861,-0.0807,-0.0793,-0.0671,-0.0654,-0.0487,-0.0352,-0.0063,0.0128,0.0333,0.0314,0.0411,0.0383,0.0324,0.0339,0.0328,0.0318,0.0381,0.0382,0.0383,0.0384,0,-0.0795,-0.0805,-0.0839,-0.0907,-0.0937,-0.0964,-0.0968,-0.0971,-0.0889,-0.0822,-0.0693,-0.0568,-0.0268,-0.0024,0.0249,0.0357,0.0379,0.0436,0.04,0.0321,0.0301,0.0312,0.0302,0.0391,0.039,0.039,0.0389,0.0389,-0.0837,-0.0881,-0.0927,-0.0988,-0.1029,-0.1061,-0.1076,-0.1046,-0.1002,-0.0875,-0.0743,-0.0523,-0.0278,0.0125,0.0316,0.0486,0.0479,0.0502,0.0495,0.0489,0.0469,0.0453,0.0569,0.0569,0.0569,0.0569,0.0569,0,-0.0885,-0.0933,-0.1003,-0.1068,-0.1121,-0.112,-0.1132,-0.1105,-0.1043,-0.0889,-0.073,-0.0443,-0.0147,0.0104,0.0389,0.0558,0.0525,0.0569,0.049,0.0482,0.0476,0.0451,0.0548,0.0548,0.0549,0.0549,0,0,-0.0911,-0.0988,-0.1026,-0.1126,-0.117,-0.1206,-0.1208,-0.1136,-0.1025,-0.0857,-0.0686,-0.0452,-0.0135,0.0053,0.0274,0.042,0.0399,0.0426,0.0428,0.0301,0.0292,0.0427,0.038,0,0,0,0,0]}],[{"header":{"parameterUnit":"m.s-1","parameterCategory":2,"la1":30.2991,"la2":30.254,"lo1":-89.0895,"lo2":-89.0444,"dy":0.0017,"dx":0.0017,"nx":28,"ny":28,"refTime":"2025-03-02T09:00:00:Z","depth":"4","parameterNumber":2,"parameterNumberName":"U-component_of_CURRENTS"},"data":[0,0,0,0,0,0,0,0,0,0,0,0,0,0,0,0,0,0,0,0,0,0,0,0,0,0,0,0,0,0,0,0,0,0,0,0,0,0,0,0,0,0,0,0,0,0,0,0,0,0,0,0,0,0,0,0,0,0,-0.1419,-0.1419,0,-0.1459,-0.1459,-0.146,-0.1497,-0.1497,-0.1498,-0.1499,-0.1541,-0.1542,-0.1542,0,0,0,0,0,0,0,0,0,0,0,0,0,-0.1358,-0.1359,-0.1419,-0.1419,-0.142,-0.1459,-0.1459,-0.146,-0.1497,-0.1497,-0.1498,-0.1499,-0.1541,-0.1542,-0.1542,0,0,0,0,0,0,0,0,0,0,0,0,0,-0.1388,-0.1359,-0.1419,-0.1444,-0.1447,-0.1459,-0.1459,-0.146,-0.1496,-0.1497,-0.1498,-0.1499,-0.1541,-0.1542,-0.1542,-0.1529,0,0,-0.1545,-0.1545,0,0,0,0,0,0,0,0,-0.1386,-0.139,-0.144,-0.1443,-0.1446,-0.1475,-0.1454,-0.1484,-0.1496,-0.1476,-0.1499,-0.15,-0.152,-0.1522,-0.1525,-0.1531,-0.1533,-0.1545,-0.1546,-0.1546,-0.1546,0,0,0,0,0,0,0,-0.1384,-0.1388,-0.1433,-0.1441,-0.1444,-0.1449,-0.1454,-0.1459,-0.1491,-0.1478,-0.1481,-0.1488,-0.1521,-0.1524,-0.1527,-0.1534,-0.1545,-0.1546,-0.1546,-0.1547,-0.1598,-0.1599,0,0,0,0,0,0,-0.1383,-0.1387,-0.1432,-0.1434,-0.142,-0.1449,-0.1455,-0.1463,-0.1491,-0.1496,-0.1487,-0.149,-0.1523,-0.1526,-0.1528,-0.1584,-0.1546,-0.1547,-0.1547,-0.1598,-0.1599,-0.16,0,0,0,0,0,0,-0.1381,-0.1386,-0.143,-0.1413,-0.1419,-0.145,-0.1459,-0.1464,-0.1496,-0.1498,-0.1504,-0.1518,-0.1523,-0.1527,-0.1559,-0.1583,-0.1547,-0.1548,-0.1597,-0.1598,-0.1599,-0.1649,0,0,0,0,0,0,-0.1379,-0.1385,-0.1403,-0.1412,-0.142,-0.1458,-0.1458,-0.1464,-0.1498,-0.1502,-0.1525,-0.1529,-0.1524,-0.1558,-0.156,-0.1583,-0.1549,-0.1595,-0.1597,-0.1599,-0.1647,-0.1652,-0.1657,0,0,0,0,0,-0.1377,-0.1395,-0.1404,-0.141,-0.1439,-0.1459,-0.1464,-0.1486,-0.1499,-0.1518,-0.1534,-0.153,-0.1569,-0.1559,-0.1561,-0.1586,-0.1595,-0.1597,-0.1599,-0.1644,-0.1651,-0.1657,0,0,0,0,0,0,-0.138,-0.14,-0.141,-0.1435,-0.1456,-0.1467,-0.149,-0.1502,-0.1529,-0.1541,-0.1542,-0.1546,-0.158,-0.1576,-0.1564,-0.1605,-0.1581,-0.1583,-0.1615,-0.1621,-0.1626,-0.1624,-0.1549,0,0,0,0,0,-0.1387,-0.1407,-0.1425,-0.1448,-0.1461,-0.148,-0.1496,-0.1512,-0.1531,-0.1545,-0.1561,-0.1574,-0.1584,-0.1599,-0.1605,-0.163,-0.1617,-0.1646,-0.1651,-0.1656,-0.1655,-0.1655,-0.166,-0.1606,-0.1606,-0.1606,0,0,-0.1395,-0.1409,-0.1423,-0.1451,-0.1469,-0.1493,-0.1493,-0.1527,-0.1551,-0.1544,-0.1591,-0.1595,-0.1594,-0.1621,-0.1636,-0.1626,-0.1666,-0.1658,-0.1662,-0.1659,-0.1658,-0.1663,-0.1667,-0.1607,-0.1607,-0.1607,0,0,-0.1413,-0.1435,-0.1457,-0.1478,-0.1511,-0.1522,-0.1538,-0.1566,-0.1588,-0.1623,-0.1622,-0.1642,-0.1666,-0.1667,-0.1668,-0.1705,-0.1692,-0.1714,-0.1744,-0.1744,-0.1749,-0.1752,-0.1749,-0.1752,-0.172,-0.172,-0.172,0,-0.1425,-0.1452,-0.1468,-0.1494,-0.1518,-0.1539,-0.1569,-0.1589,-0.1625,-0.1643,-0.1649,-0.1682,-0.1683,-0.1705,-0.1718,-0.1718,-0.1716,-0.1721,-0.1751,-0.1754,-0.1757,-0.1753,-0.1756,-0.1723,-0.1722,-0.1722,-0.1722,0,-0.1449,-0.1484,-0.1501,-0.154,-0.1566,-0.1597,-0.1624,-0.1658,-0.1685,-0.17,-0.1739,-0.1739,-0.1757,-0.1762,-0.1753,-0.1777,-0.1769,-0.1755,-0.1735,-0.1765,-0.1759,-0.1761,-0.1726,-0.1725,-0.1725,-0.1724,0,0,-0.1441,-0.1506,-0.1515,-0.1546,-0.1595,-0.1616,-0.1664,-0.1704,-0.1737,-0.1768,-0.1803,-0.1817,-0.1819,-0.182,-0.1813,-0.1815,-0.1833,-0.18,-0.1799,-0.1797,-0.1838,-0.1732,-0.1724,-0.183,-0.183,-0.1831,-0.1828,0,-0.1459,-0.1515,-0.1544,-0.1603,-0.1635,-0.1673,-0.1713,-0.1753,-0.1785,-0.1823,-0.1829,-0.1857,-0.184,-0.1854,-0.1854,-0.1838,-0.1839,-0.1835,-0.1808,-0.1807,-0.1709,-0.1723,-0.1832,-0.1829,-0.1829,-0.1829,-0.183,0,-0.1465,-0.1506,-0.1569,-0.164,-0.1659,-0.1699,-0.1767,-0.1804,-0.1853,-0.1879,-0.1905,-0.1909,-0.1922,-0.19,-0.1891,-0.1893,-0.1871,-0.1853,-0.1852,-0.1735,-0.1704,-0.179,-0.1832,-0.1832,-0.1832,-0.1832,-0.1832,0,-0.1439,-0.1519,-0.1573,-0.1599,-0.1681,-0.1723,-0.1767,-0.1825,-0.1858,-0.1914,-0.1941,-0.1956,-0.1968,-0.1948,-0.1916,-0.191,-0.1897,-0.188,-0.1765,-0.1758,-0.1832,-0.1828,-0.1869,-0.1869,-0.1869,-0.1869,-0.1869,0,-0.1429,-0.1475,-0.1573,-0.1602,-0.1665,-0.1725,-0.1789,-0.1834,-0.1897,-0.1922,-0.1966,-0.1975,-0.1981,-0.1972,-0.1936,-0.1852,-0.1914,-0.1765,-0.1746,-0.1855,-0.1853,-0.1834,-0.183,-0.1869,-0.1869,-0.1869,-0.1869,0,-0.1383,-0.1452,-0.1517,-0.162,-0.1655,-0.1698,-0.1796,-0.1825,-0.1904,-0.1938,-0.1957,-0.1999,-0.1976,-0.197,-0.1936,-0.1864,-0.1805,-0.1763,-0.1889,-0.1877,-0.1661,-0.166,-0.1623,-0.1619,-0.1616,-0.1613,-0.1611,0,-0.136,-0.1392,-0.1513,-0.1545,-0.1597,-0.1674,-0.1713,-0.1812,-0.1833,-0.1925,-0.1918,-0.1948,-0.1952,-0.1819,-0.1832,-0.1761,-0.1734,-0.1702,-0.1665,-0.1649,-0.1635,-0.1639,-0.1642,-0.1605,-0.1605,-0.1604,-0.1603,0,-0.1303,-0.1361,-0.141,-0.1479,-0.1536,-0.1588,-0.1653,-0.1661,-0.1754,-0.1854,-0.182,-0.1796,-0.1773,-0.1729,-0.1694,-0.1642,-0.1719,-0.1667,-0.1673,-0.1638,-0.1628,-0.1618,-0.1625,-0.1592,-0.1593,-0.1594,-0.1595,0,-0.1253,-0.1269,-0.1335,-0.1379,-0.1447,-0.1457,-0.1517,-0.1532,-0.1572,-0.1675,-0.1662,-0.1693,-0.1752,-0.1668,-0.1635,-0.1578,-0.1539,-0.1476,-0.1491,-0.1504,-0.1464,-0.1433,-0.1314,0,0,0,0,0,-0.1186,-0.1184,-0.122,-0.1257,-0.1319,-0.1351,-0.1443,-0.1502,-0.1605,-0.1534,-0.1592,-0.156,-0.1509,-0.1532,-0.144,-0.1572,-0.1545,-0.1461,-0.1481,-0.1529,-0.1542,-0.1504,0,0,0,0,0,0,-0.1138,-0.1168,-0.1176,-0.1136,-0.1132,-0.118,-0.123,-0.1308,-0.1278,-0.1391,-0.1365,-0.1459,-0.1425,-0.1523,-0.1402,-0.1408,-0.1387,-0.1495,-0.1491,-0.1522,-0.1534,-0.1544,-0.151,0,0,0,0,0]},{"header":{"parameterUnit":"m.s-1","parameterCategory":2,"la1":30.2991,"la2":30.254,"lo1":-89.0895,"lo2":-89.0444,"dy":0.0017,"dx":0.0017,"nx":28,"ny":28,"refTime":"2025-03-02T09:00:00:Z","depth":"4","parameterNumber":3,"parameterNumberName":"V-component_of_CURRENTS"},"data":[0,0,0,0,0,0,0,0,0,0,0,0,0,0,0,0,0,0,0,0,0,0,0,0,0,0,0,0,0,0,0,0,0,0,0,0,0,0,0,0,0,0,0,0,0,0,0,0,0,0,0,0,0,0,0,0,0,0,-0.0238,-0.0237,0,-0.0202,-0.0202,-0.0202,-0.0183,-0.0183,-0.0183,-0.0183,-0.0141,-0.014,-0.0139,0,0,0,0,0,0,0,0,0,0,0,0,0,-0.0266,-0.0266,-0.0238,-0.0237,-0.0237,-0.0202,-0.0202,-0.0202,-0.0183,-0.0183,-0.0183,-0.0183,-0.0141,-0.014,-0.0139,0,0,0,0,0,0,0,0,0,0,0,0,0,-0.0245,-0.0266,-0.0238,-0.0223,-0.0221,-0.0203,-0.0202,-0.0202,-0.0183,-0.0183,-0.0183,-0.0182,-0.0141,-0.014,-0.0138,-0.0132,0,0,-0.0134,-0.0133,0,0,0,0,0,0,0,0,-0.0247,-0.0245,-0.0225,-0.0224,-0.0222,-0.0196,-0.0197,-0.0178,-0.0183,-0.0198,-0.0183,-0.0182,-0.0158,-0.0155,-0.015,-0.013,-0.0128,-0.0134,-0.0133,-0.0132,-0.0132,0,0,0,0,0,0,0,-0.0248,-0.0246,-0.0224,-0.0225,-0.0223,-0.021,-0.0207,-0.0193,-0.018,-0.0197,-0.0195,-0.019,-0.0157,-0.0152,-0.0149,-0.0128,-0.0134,-0.0132,-0.0131,-0.0131,-0.0095,-0.0095,0,0,0,0,0,0,-0.0253,-0.0247,-0.0226,-0.0223,-0.0233,-0.021,-0.0206,-0.0205,-0.018,-0.0176,-0.019,-0.0189,-0.0154,-0.0151,-0.0147,-0.0136,-0.0132,-0.0131,-0.013,-0.0096,-0.0095,-0.0095,0,0,0,0,0,0,-0.0253,-0.0251,-0.0227,-0.0234,-0.023,-0.0209,-0.0208,-0.0205,-0.02,-0.0175,-0.0171,-0.019,-0.0154,-0.015,-0.0136,-0.0134,-0.013,-0.0129,-0.0096,-0.0096,-0.0095,-0.0114,0,0,0,0,0,0,-0.0254,-0.0252,-0.0256,-0.0234,-0.0229,-0.022,-0.0208,-0.0204,-0.0197,-0.0196,-0.0173,-0.0169,-0.0154,-0.0138,-0.0134,-0.0132,-0.0127,-0.0096,-0.0096,-0.0095,-0.0114,-0.0115,-0.0116,0,0,0,0,0,-0.0256,-0.0261,-0.0257,-0.0254,-0.0235,-0.022,-0.0217,-0.0202,-0.0197,-0.0197,-0.0181,-0.017,-0.0135,-0.0137,-0.0132,-0.013,-0.0096,-0.0096,-0.0095,-0.0113,-0.0115,-0.0116,0,0,0,0,0,0,-0.0277,-0.0259,-0.0254,-0.0254,-0.024,-0.0217,-0.0216,-0.0205,-0.0193,-0.0193,-0.017,-0.0164,-0.0153,-0.0139,-0.0142,-0.0119,-0.0114,-0.0113,-0.0129,-0.013,-0.0131,-0.0132,-0.0126,0,0,0,0,0,-0.0284,-0.0284,-0.0263,-0.0265,-0.0259,-0.0239,-0.0233,-0.0222,-0.0206,-0.02,-0.0183,-0.0165,-0.0149,-0.0138,-0.0124,-0.0111,-0.0087,-0.0107,-0.0108,-0.0109,-0.0106,-0.0067,-0.0064,-0.0095,-0.0095,-0.0095,0,0,-0.0294,-0.0284,-0.0285,-0.027,-0.0259,-0.0252,-0.0235,-0.0228,-0.0221,-0.0198,-0.0187,-0.0171,-0.0147,-0.0133,-0.0126,-0.0121,-0.0088,-0.0109,-0.011,-0.0107,-0.0066,-0.0063,-0.006,-0.0095,-0.0095,-0.0095,0,0,-0.0311,-0.0305,-0.0308,-0.0297,-0.0281,-0.0267,-0.0266,-0.0244,-0.0234,-0.0221,-0.0202,-0.0182,-0.0162,-0.0138,-0.0125,-0.0123,-0.0098,-0.0123,-0.0125,-0.0087,-0.0084,-0.0081,-0.0048,-0.0042,-0.012,-0.012,-0.012,0,-0.0324,-0.0325,-0.0307,-0.0305,-0.0299,-0.0275,-0.0276,-0.026,-0.0236,-0.0226,-0.0223,-0.018,-0.0162,-0.0132,-0.0132,-0.0125,-0.0102,-0.0123,-0.0088,-0.0084,-0.0081,-0.0048,-0.0041,-0.0121,-0.0121,-0.0121,-0.0121,0,-0.0336,-0.034,-0.0341,-0.033,-0.0321,-0.032,-0.0293,-0.0283,-0.027,-0.0248,-0.0223,-0.0193,-0.0166,-0.0156,-0.0144,-0.0111,-0.0103,-0.0097,-0.0084,-0.0079,-0.0044,-0.0037,-0.0123,-0.0122,-0.0122,-0.0122,0,0,-0.0362,-0.0353,-0.0355,-0.036,-0.0336,-0.0334,-0.0318,-0.0296,-0.0287,-0.0256,-0.0238,-0.0202,-0.0182,-0.0166,-0.0142,-0.0106,-0.0063,-0.0094,-0.0091,-0.0061,0.0019,0.0018,0.0026,-0.0051,-0.005,-0.0049,0.0033,0,-0.0379,-0.0392,-0.0375,-0.0386,-0.0391,-0.0363,-0.0353,-0.0328,-0.0301,-0.0276,-0.023,-0.0208,-0.0186,-0.0177,-0.0134,-0.0083,-0.0044,-0.0086,0.0009,0.0012,0.0011,0.0035,-0.0045,0.0039,0.0041,0.0042,0.0043,0,-0.0395,-0.0404,-0.0422,-0.0422,-0.0421,-0.0422,-0.0404,-0.039,-0.0339,-0.0317,-0.0273,-0.0237,-0.0179,-0.0167,-0.0061,-0.009,-0.0038,0.0005,0.001,0.0021,0.0025,0.0033,0.0057,0.0056,0.0055,0.0054,0.0053,0,-0.0429,-0.0436,-0.0457,-0.0457,-0.0449,-0.0454,-0.0448,-0.0408,-0.0399,-0.0343,-0.0326,-0.0249,-0.0215,-0.0133,-0.004,-0.0051,0.0078,0.0074,0.0126,0.0126,0.011,0.0106,0.015,0.015,0.015,0.015,0.015,0,-0.0453,-0.0471,-0.0482,-0.0495,-0.0524,-0.0498,-0.0512,-0.0488,-0.045,-0.0437,-0.0357,-0.0324,-0.0205,-0.0118,-0.0037,0.0073,0.0084,0.0134,0.0151,0.01,0.0094,0.0116,0.0111,0.0153,0.0152,0.0152,0.0151,0,-0.0484,-0.0489,-0.0521,-0.0535,-0.0545,-0.0567,-0.0572,-0.0574,-0.0527,-0.0504,-0.0489,-0.0376,-0.0255,-0.013,0.0012,0.0072,0.0178,0.0213,0.0153,0.0165,0.0198,0.0191,0.0276,0.0276,0.0277,0.0278,0.0278,0,-0.0498,-0.052,-0.0566,-0.0598,-0.0611,-0.0639,-0.0657,-0.0624,-0.0616,-0.0536,-0.0523,-0.0401,-0.0315,-0.0102,0.0023,0.0194,0.021,0.026,0.0227,0.0205,0.0214,0.0205,0.0198,0.0279,0.0279,0.0279,0.0279,0,-0.053,-0.0553,-0.0584,-0.0654,-0.0693,-0.0724,-0.0739,-0.0738,-0.0685,-0.0648,-0.0539,-0.0414,-0.027,-0.0103,0.0039,0.0154,0.0226,0.0267,0.0266,0.0235,0.021,0.0216,0.0208,0.0282,0.0281,0.0281,0.0281,0,-0.0556,-0.0593,-0.0643,-0.0699,-0.0756,-0.0786,-0.0789,-0.0758,-0.0735,-0.0632,-0.06,-0.0426,-0.032,-0.0123,0.0003,0.0127,0.0144,0.0164,0.0168,0.0167,0.0109,0.0059,0.0108,0,0,0,0,0,-0.0575,-0.0618,-0.0681,-0.0739,-0.0796,-0.0821,-0.0831,-0.0815,-0.0766,-0.0697,-0.0641,-0.0501,-0.028,-0.0176,-0.0053,-0.0008,0.0148,0.0136,0.0167,0.0293,0.0291,0.024,0,0,0,0,0,0,-0.0588,-0.0652,-0.0684,-0.0758,-0.0803,-0.0851,-0.0859,-0.0825,-0.0769,-0.0701,-0.0577,-0.0491,-0.0273,-0.0352,-0.0056,-0.0016,0.0014,0.025,0.0252,0.0295,0.0292,0.029,0.0237,0,0,0,0,0]}]]